TimeMST,TemperatureF,Dew PointF,Humidity,Sea Level PressureIn,VisibilityMPH,Wind Direction,Wind SpeedMPH,Gust SpeedMPH,PrecipitationIn,Events,Conditions,WindDirDegrees,DateUTC
12:57 AM,46.0,12.0,25,29.96,10.0,SW,4.6,-,N/A,,Clear,230,2013-04-22 07:57:00
1:57 AM,43.0,12.9,30,29.94,10.0,SSW,5.8,-,N/A,,Clear,210,2013-04-22 08:57:00
2:57 AM,36.0,12.9,39,29.95,10.0,SW,4.6,-,N/A,,Clear,220,2013-04-22 09:57:00
3:57 AM,33.1,14.0,46,29.96,10.0,Calm,Calm,-,N/A,,Clear,0,2013-04-22 10:57:00
4:57 AM,30.0,14.0,51,29.97,10.0,Calm,Calm,-,N/A,,Clear,0,2013-04-22 11:57:00
5:57 AM,28.9,12.9,51,30.00,10.0,Calm,Calm,-,N/A,,Clear,0,2013-04-22 12:57:00
6:57 AM,39.0,16.0,39,29.99,10.0,Calm,Calm,-,N/A,,Clear,0,2013-04-22 13:57:00
7:57 AM,53.1,17.1,24,29.94,10.0,Calm,Calm,-,N/A,,Clear,0,2013-04-22 14:57:00
8:57 AM,59.0,18.0,20,29.93,10.0,SSW,8.1,-,N/A,,Clear,210,2013-04-22 15:57:00
9:57 AM,63.0,17.1,17,29.91,10.0,SSW,17.3,23.0,N/A,,Clear,210,2013-04-22 16:57:00
10:57 AM,64.9,15.1,15,29.90,10.0,WSW,17.3,25.3,N/A,,Clear,240,2013-04-22 17:57:00
11:57 AM,66.0,16.0,15,29.90,10.0,SW,21.9,28.8,N/A,,Clear,220,2013-04-22 18:57:00
12:54 PM,66.2,15.8,14,30.10,10.0,WSW,12.7,27.6,N/A,,Partly Cloudy,240,2013-04-22 19:54:00
12:57 PM,68.0,17.1,14,29.86,10.0,SW,20.7,29.9,N/A,,Partly Cloudy,230,2013-04-22 19:57:00
1:57 PM,69.1,17.1,14,29.83,10.0,SW,19.6,33.4,N/A,,Clear,220,2013-04-22 20:57:00
2:57 PM,70.0,17.1,13,29.83,10.0,SW,25.3,35.7,N/A,,Clear,230,2013-04-22 21:57:00
3:57 PM,68.0,15.1,13,29.81,10.0,WSW,21.9,28.8,N/A,,Clear,250,2013-04-22 22:57:00
4:57 PM,66.9,16.0,14,29.83,10.0,SW,21.9,34.5,N/A,,Clear,230,2013-04-22 23:57:00
5:57 PM,64.9,16.0,15,29.84,10.0,WSW,16.1,27.6,N/A,,Clear,250,2013-04-23 00:57:00
6:57 PM,61.0,17.1,18,29.81,10.0,WSW,17.3,27.6,N/A,,Clear,250,2013-04-23 01:57:00
7:57 PM,57.9,15.1,19,29.78,10.0,WSW,13.8,19.6,N/A,,Clear,240,2013-04-23 02:57:00
8:57 PM,55.9,15.1,20,29.78,10.0,WSW,10.4,-,N/A,,Clear,250,2013-04-23 03:57:00
9:57 PM,54.0,15.1,22,29.77,10.0,WSW,8.1,-,N/A,,Clear,240,2013-04-23 04:57:00
10:57 PM,54.0,15.1,22,29.74,10.0,WSW,13.8,20.7,N/A,,Clear,240,2013-04-23 05:57:00
11:57 PM,53.1,16.0,23,29.73,10.0,WSW,11.5,-,N/A,,Clear,240,2013-04-23 06:57:00